Regional Weather Roundup
Issued by NWS

Home | Current Version | Previous Version | Graphics & Text | Print | Product List | Glossary On
Versions: 1 2 3 4 5 6 7 8 9 10 11 12 13 14 15 16 17 18 19 20 21 22 23 24 25 26 27 28 29 30 31 32 33 34 35 36 37 38 39 40 41 42 43 44 45 46 47 48 49 50
000
ASUS43 KLOT 281809
RWRIL

ILLINOIS REGIONAL WEATHER ROUNDUP
NATIONAL WEATHER SERVICE CHICAGO/ROMEOVILLE IL
100 PM CDT FRI JUL 28 2017

NOTE: "FAIR" INDICATES FEW OR NO CLOUDS BELOW 12,000 FEET WITH NO
SIGNIFICANT WEATHER AND/OR OBSTRUCTIONS TO VISIBILITY.

* THESE STATIONS ARE NOT UNDER NWS QUALITY CONTROL. THEY ALSO MAY NOT
  REPORT WEATHER SUCH AS PRECIPITATION OR FOG.

ILZ001-002-007-009-015-016-024-281900-
NORTHWEST ILLINOIS

CITY           SKY/WX    TMP DP  RH WIND       PRES   REMARKS
MOLINE         SUNNY     81  61  50 NE10      30.01F HX  82
6HR MIN TEMP:  67; 6HR MAX TEMP:  81;

STERLING*      SUNNY     80  59  48 N12       30.03S HX  81
SAVANNA*       SUNNY     78  60  53 NE12      30.03F HX  80
$$

ILZ003-004-008-010-011-017-018-281900-
NORTH CENTRAL ILLINOIS

CITY           SKY/WX    TMP DP  RH WIND       PRES   REMARKS
ROCKFORD       MOSUNNY   81  55  40 NE13      30.04R HX  81
6HR MIN TEMP:  65; 6HR MAX TEMP:  81;

FREEPORT*      SUNNY     75  55  50 NE13G20   30.06S
ROCHELLE*      MOSUNNY   76  60  57 NE10G18   30.03S
DE KALB*       PTSUNNY   76  63  64 NE10      30.03S
PERU*          MOSUNNY   76  61  57 NE13      30.01S
$$

ILZ005-006-012>014-019>023-281900-
NORTHEAST ILLINOIS

CITY           SKY/WX    TMP DP  RH WIND       PRES   REMARKS
CHICAGO-OHARE  PTSUNNY   77  61  57 NE17      30.01R
6HR MIN TEMP:  71; 6HR MAX TEMP:  78;

CHICAGO-MIDWAY MOSUNNY   78  63  59 NE14G23   30.00R HX  80
6HR MIN TEMP:  72; 6HR MAX TEMP:  79;

AURORA         MOSUNNY   79  64  60 N10       30.01S HX  81
6HR MIN TEMP:  66; 6HR MAX TEMP:  79;

LANSING*       MOSUNNY   74  62  64 NE14G21   29.99S
JOLIET*        MOSUNNY   79  63  56 NE14      29.99S HX  81
WAUKEGAN       MOSUNNY   74  63  68 N8G18     30.03S
6HR MIN TEMP:  68; 6HR MAX TEMP:  74;

DUPAGE AIRPORT SUNNY     78  62  57 NE13      30.00S HX  80
6HR MIN TEMP:  65; 6HR MAX TEMP:  79;

KANKAKEE*      SUNNY     79  65  62 N15       29.97S HX  80
WHEELING       MOSUNNY   75  64  68 NE14      30.03S
6HR MIN TEMP:  69; 6HR MAX TEMP:  75;

MORRIS*        MOSUNNY   78  63  58 N3        29.98S HX  80
ROMEOVILLE*    PTSUNNY   78  59  51 NE14G20   30.00R
NORTHERLY ISL    N/A     74  64  71 N12         N/A
$$

LMZ740>746-281900-
SOUTHERN LAKE MICHIGAN

STATION/POSITION SKY/WX   TEMP    WIND        PRES    VSBY  WAVE
                          AIR SEA DIR/SP/G                  HT/PER
                          (F)     (DEG/KT/KT) (MB)    (MI)  (FT/S)
SOUTHERN BUOY              70 71   30/ 12/ 14 1016.3          2/ 5
WILMETTE HARBOR            70 72   10/ 14/ 16   N/A           4/ 5
HARRISON CRIB              71      10/ 18/ 19   N/A
BURNHAM HARBOR             75                   N/A
CALUMET HARBOR             73     360/ 13/ 19 1015.6R
BURNS HARBOR               71      30/ 16/ 19 1015.9R
MICHIGAN CITY              70     360/ 19/ 21   N/A
MICHIGAN CITY 6N           71 74   20/ 16/ 19   N/A           5/ 5
ST. JOSEPH                 71 71   30/ 16/ 19 1015.1          3/ 5
$$

ILZ025>027-034>036-040-047-049-050-058-095>099-281900-
WEST-CENTRAL ILLINOIS

CITY           SKY/WX    TMP DP  RH WIND       PRES   REMARKS
QUINCY         SUNNY     82  65  56 NE14      29.98F HX  84
GALESBURG*     MOSUNNY   78  62  57 N15       30.02F HX  80
MACOMB*        MOSUNNY   79  69  69 NE13      30.02S HX  82
JACKSONVILLE*  MOSUNNY   80  66  61 N14       29.95F HX  82
PITTSFIELD*    MOSUNNY   82  67  61 NE12      29.98S HX  84
$$

ILZ028>032-037-038-041>044-048-051>054-059>061-281900-
CENTRAL ILLINOIS

CITY           SKY/WX    TMP DP  RH WIND       PRES   REMARKS
PONTIAC        PTSUNNY   79  69  71 N14       29.98S HX  81
BLOOMINGTON    PTSUNNY   79  67  66 NE17      29.97F HX  81
DECATUR        PTSUNNY   80  69  69 NE17G24   29.93F HX  83
PEORIA         MOSUNNY   81  65  58 NE10      29.98S HX  83
6HR MIN TEMP:  64; 6HR MAX TEMP:  82;

LACON*         PTSUNNY   78  67  68 N8G16     29.98F HX  80
LINCOLN*       MOSUNNY   80  70  71 NE13G18   29.95F HX  84
SPRINGFIELD    MOSUNNY   84  69  60 NE16      29.95F HX  88
6HR MIN TEMP:  66; 6HR MAX TEMP:  84;

TAYLORVILLE    PTSUNNY   80  71  74 N15       29.94F HX  83
6HR MIN TEMP:  65; 6HR MAX TEMP:  81;

$$

ILZ033-039-045-046-055>057-062-063-281900-
EAST-CENTRAL ILLINOIS

CITY           SKY/WX    TMP DP  RH WIND       PRES   REMARKS
CHAMPAIGN      MOSUNNY   80  67  64 NE15G24   29.94S HX  82
RANTOUL*       MOSUNNY   82  68  63 NE10      29.94F HX  84
MATTOON        MOSUNNY   79  74  84 NE14      29.90F HX  82
PARIS*         MOSUNNY   79  71  75 NE12G17   29.92S HX  82
$$

ILZ079-100>102-281900-
SOUTHWEST ILLINOIS

CITY           SKY/WX    TMP DP  RH WIND       PRES   REMARKS
ALTON          PTSUNNY   81  70  69 N14       29.93S HX  84
BELLEVILLE     MOSUNNY   83  71  65 N12       29.91F HX  88
CAHOKIA*       MOSUNNY   86  68  54 N15G21    29.91F HX  89
SPARTA*        PTSUNNY   82  71  68 N12       29.91F HX  86
$$

ILZ064>066-069>071-074>076-080>082-084>086-088>090-092>094-281900-
SOUTH-CENTRAL ILLINOIS

CITY           SKY/WX    TMP DP  RH WIND       PRES   REMARKS
CARBONDALE     PTSUNNY   84  72  67 N12       29.88S HX  89
6HR MIN TEMP:  75; 6HR MAX TEMP:  84;

CAIRO*         MOSUNNY   84  74  72 N14       29.85R HX  91
EFFINGHAM*     CLOUDY    76  73  90 N9        29.92F
MARION         PTSUNNY   84  75  74 N9        29.88S HX  92
MT. VERNON     PTSUNNY   81  72  74 N7        29.88S HX  85
CENTRALIA*     CLOUDY    82  73  75 N10       29.89S HX  88
SALEM*         CLOUDY    82  73  72 N12       29.89F HX  88
METROPOLIS*    MOSUNNY   86  74  68 N10       29.85S HX  94
$$

ILZ067-068-072-073-078-083-087-091-281900-
SOUTHEAST ILLINOIS

CITY           SKY/WX    TMP DP  RH WIND       PRES   REMARKS
LAWRENCEVILLE  PTSUNNY   81  75  82 N15       29.86F HX  87
FLORA*         CLOUDY    82  74  77 N14       29.89R HX  87
FAIRFIELD*     MOSUNNY   83  74  73 N8        29.86S HX  90
HARRISBURG*    PTSUNNY   84  74  70 N8G16     29.86S HX  91
ROBINSON*      CLOUDY    80  73  81 N8        29.88S HX  83
CARMI*         MOSUNNY   82  75  80 N14       29.85S HX  89
$$

ABBREVIATIONS USED IN REMARKS
   TC - TEMPERATURE IN CELSIUS
  WCI - WIND CHILL INDEX
   HX - HEAT INDEX
  VSB - VISIBILITY
$$




USA.gov is the U.S. government's official web portal to all federal, state and local government web resources and services.